TimeCDT,TemperatureF,Dew PointF,Humidity,Sea Level PressureIn,VisibilityMPH,Wind Direction,Wind SpeedMPH,Gust SpeedMPH,PrecipitationIn,Events,Conditions,WindDirDegrees,DateUTC
12:52 AM,35.1,30.0,82,30.17,10.0,North,8.1,-,N/A,,Partly Cloudy,350,2013-05-05 05:52:00
1:19 AM,35.6,30.2,81,30.16,10.0,NNW,5.8,-,N/A,,Mostly Cloudy,330,2013-05-05 06:19:00
1:26 AM,35.6,30.2,81,30.16,10.0,NW,6.9,-,N/A,,Mostly Cloudy,320,2013-05-05 06:26:00
1:38 AM,35.6,30.2,81,30.16,10.0,NW,5.8,-,N/A,,Overcast,320,2013-05-05 06:38:00
1:52 AM,36.0,30.0,79,30.16,10.0,NNW,5.8,-,N/A,,Overcast,330,2013-05-05 06:52:00
2:52 AM,37.4,30.2,75,30.15,10.0,NNW,6.9,-,N/A,,Mostly Cloudy,330,2013-05-05 07:52:00
3:06 AM,35.6,28.4,75,30.15,10.0,NNW,5.8,-,N/A,,Scattered Clouds,340,2013-05-05 08:06:00
3:52 AM,32.0,27.0,82,30.15,10.0,NNW,5.8,-,N/A,,Partly Cloudy,330,2013-05-05 08:52:00
4:17 AM,33.8,28.4,81,30.15,10.0,NNW,6.9,-,N/A,,Mostly Cloudy,340,2013-05-05 09:17:00
4:44 AM,32.0,26.6,80,30.16,10.0,NNW,5.8,-,N/A,,Scattered Clouds,340,2013-05-05 09:44:00
4:52 AM,32.0,27.0,82,30.17,10.0,NNW,6.9,-,N/A,,Partly Cloudy,330,2013-05-05 09:52:00
5:52 AM,32.0,26.1,79,30.17,10.0,NNW,8.1,-,N/A,,Clear,340,2013-05-05 10:52:00
6:15 AM,33.8,26.6,75,30.17,10.0,NNW,8.1,-,N/A,,Mostly Cloudy,340,2013-05-05 11:15:00
6:52 AM,35.1,28.0,76,30.18,10.0,North,10.4,-,N/A,,Overcast,350,2013-05-05 11:52:00
7:52 AM,37.9,30.0,73,30.21,10.0,NNW,11.5,-,N/A,,Mostly Cloudy,340,2013-05-05 12:52:00
8:05 AM,39.2,30.2,70,30.21,10.0,NNW,11.5,-,N/A,,Scattered Clouds,340,2013-05-05 13:05:00
8:22 AM,39.2,30.2,70,30.21,10.0,North,12.7,-,N/A,,Mostly Cloudy,350,2013-05-05 13:22:00
8:52 AM,43.0,30.9,62,30.22,10.0,North,15.0,-,N/A,,Scattered Clouds,360,2013-05-05 13:52:00
9:52 AM,48.0,32.0,54,30.21,10.0,North,17.3,26.5,N/A,,Clear,360,2013-05-05 14:52:00
10:52 AM,53.1,30.9,43,30.21,10.0,NNW,15.0,23.0,N/A,,Clear,340,2013-05-05 15:52:00
11:52 AM,55.9,33.1,42,30.21,10.0,NNW,12.7,21.9,N/A,,Clear,340,2013-05-05 16:52:00
12:52 PM,59.0,35.1,41,30.19,10.0,North,10.4,21.9,N/A,,Overcast,10,2013-05-05 17:52:00
1:52 PM,62.1,35.1,37,30.17,10.0,NW,9.2,-,N/A,,Scattered Clouds,320,2013-05-05 18:52:00
2:52 PM,63.0,36.0,37,30.14,10.0,Variable,4.6,16.1,N/A,,Clear,0,2013-05-05 19:52:00
3:52 PM,64.0,36.0,35,30.12,10.0,Calm,Calm,-,N/A,,Clear,0,2013-05-05 20:52:00
4:52 PM,64.9,35.1,33,30.09,10.0,NNW,5.8,-,N/A,,Clear,340,2013-05-05 21:52:00
5:52 PM,64.9,35.1,33,30.09,10.0,NE,5.8,-,N/A,,Clear,40,2013-05-05 22:52:00
6:52 PM,63.0,37.0,38,30.09,10.0,NE,5.8,-,N/A,,Clear,50,2013-05-05 23:52:00
7:52 PM,60.1,39.0,46,30.09,10.0,Calm,Calm,-,N/A,,Clear,0,2013-05-06 00:52:00
8:52 PM,57.9,37.0,46,30.10,10.0,Calm,Calm,-,N/A,,Clear,0,2013-05-06 01:52:00
9:52 PM,52.0,37.9,59,30.11,10.0,Calm,Calm,-,N/A,,Clear,0,2013-05-06 02:52:00
10:52 PM,46.9,37.0,68,30.12,10.0,Calm,Calm,-,N/A,,Clear,0,2013-05-06 03:52:00
11:52 PM,48.0,37.0,66,30.11,10.0,Calm,Calm,-,N/A,,Clear,0,2013-05-06 04:52:00